Weather History for TJNR - October, 2013

Change the Weather History Date:

Wednesday, October 2, 2013

  Actual Average Record
Temperature  
Mean Temperature 84 °F -  
Max Temperature 89 °F 86 °F 90 °F (2003)
Min Temperature 79 °F 74 °F 73 °F (1997)
Cooling Degree Days 19    
Growing Degree Days 34 (Base 50)    
Moisture  
Dew Point 76 °F    
Average Humidity 76    
Maximum Humidity 90    
Minimum Humidity 66    
Precipitation  
Precipitation 0.00 in - - ()
Sea Level Pressure  
Sea Level Pressure 29.97 in    
Wind  
Wind Speed 7 mph (ENE)    
Max Wind Speed 13 mph    
Max Gust Speed 16 mph    
Visibility 10 miles    
Events      
Averages and records for this station are not official NWS values.
T = Trace of Precipitation, MM = Missing Value Source: NWS Daily Summary

Daily Weather History Graph

Daily Weather History Graph

Search for Another Location

Airport or City:

Trip Planner

Search our weather history database for the weather conditions in past years. The results will help you decide how hot, cold, wet, or windy it might be!

Date:

Astronomy

Oct. 02, 2013 Rise Set
Actual Time 6:13 AM AST 6:10 PM AST
Civil Twilight 5:51 AM AST 6:31 PM AST
Nautical Twilight 5:26 AM AST 6:57 PM AST
Astronomical Twilight 5:00 AM AST 7:22 PM AST
Moon 3:59 AM AST (10/2) 4:31 PM AST (10/2)
Length of Visible Light 12h 40m
Length of Day
11h 56m
Waning Crescent, 6% of the Moon is Illuminated
Oct 2
Waning Crescent
Oct 4
New
Oct 11
First Quarter
Oct 18
Full
Oct 26
Last Quarter

Hourly Weather History & Observations

Time (AST) Temp. Heat Index Dew Point Humidity Pressure Visibility Wind Dir Wind Speed Gust Speed Precip Events Conditions
12:53 AM 82.0 °F 90.2 °F 77.0 °F 85% 29.98 in 10.0 mi East 5.8 mph - N/A   Scattered Clouds
1:53 AM 82.0 °F 90.2 °F 77.0 °F 85% 29.96 in 10.0 mi East 3.5 mph - N/A   Partly Cloudy
2:53 AM 82.0 °F 88.6 °F 75.0 °F 79% 29.95 in 10.0 mi East 6.9 mph - N/A   Partly Cloudy
3:53 AM 79.0 °F - 75.9 °F 90% 29.94 in 10.0 mi Calm Calm - N/A   Partly Cloudy
4:53 AM 81.0 °F 86.7 °F 75.0 °F 82% 29.95 in 10.0 mi East 6.9 mph - N/A   Clear
5:53 AM 82.0 °F 87.9 °F 73.9 °F 76% 29.96 in 10.0 mi ENE 5.8 mph - N/A   Overcast
6:53 AM 82.9 °F 90.8 °F 75.9 °F 79% 29.98 in 10.0 mi ENE 4.6 mph - N/A   Mostly Cloudy
7:53 AM 86.0 °F 96.0 °F 75.9 °F 72% 29.99 in 10.0 mi ENE 4.6 mph - N/A   Partly Cloudy
8:53 AM 87.1 °F 97.3 °F 75.9 °F 69% 30.01 in 10.0 mi East 8.1 mph - N/A   Scattered Clouds
9:53 AM 87.1 °F 98.8 °F 77.0 °F 72% 30.02 in 10.0 mi East 9.2 mph - N/A   Clear
10:53 AM 88.0 °F 100.2 °F 77.0 °F 70% 30.01 in 10.0 mi East 9.2 mph - N/A   Scattered Clouds
11:06 AM 86.0 °F 96.9 °F 77.0 °F 74% 30.00 in 10.0 mi ENE 9.2 mph - N/A   Mostly Cloudy
11:13 AM 87.8 °F 97.6 °F 75.2 °F 66% 30.00 in 10.0 mi ENE 10.4 mph - N/A   Mostly Cloudy
11:53 AM 89.1 °F 103.2 °F 78.1 °F 70% 29.98 in 10.0 mi ENE 10.4 mph - N/A   Partly Cloudy
12:53 PM 88.0 °F 98.5 °F 75.9 °F 67% 29.96 in 10.0 mi East 10.4 mph - N/A   Partly Cloudy
1:53 PM 88.0 °F 98.5 °F 75.9 °F 67% 29.95 in 10.0 mi East 10.4 mph 16.1 mph N/A   Scattered Clouds
2:53 PM 88.0 °F 100.2 °F 77.0 °F 70% 29.93 in 10.0 mi East 12.7 mph - N/A   Partly Cloudy
3:53 PM 88.0 °F 98.5 °F 75.9 °F 67% 29.93 in 10.0 mi Variable 6.9 mph - N/A   Clear
4:53 PM 84.9 °F 93.3 °F 75.0 °F 72% 29.93 in 10.0 mi East 6.9 mph - N/A   Clear
5:53 PM 84.0 °F 91.9 °F 75.0 °F 74% 29.94 in 10.0 mi East 8.1 mph - N/A   Partly Cloudy
6:53 PM 82.9 °F 91.8 °F 77.0 °F 82% 29.95 in 10.0 mi ENE 6.9 mph - N/A   Clear
7:53 PM 82.9 °F 90.8 °F 75.9 °F 79% 29.96 in 10.0 mi ENE 5.8 mph - N/A   Mostly Cloudy
8:53 PM 81.0 °F 87.3 °F 75.9 °F 85% 29.97 in 10.0 mi North 3.5 mph - N/A   Partly Cloudy
9:53 PM 84.0 °F 92.6 °F 75.9 °F 76% 29.98 in 10.0 mi ENE 6.9 mph - N/A   Clear
10:53 PM 84.0 °F 92.6 °F 75.9 °F 76% 29.98 in 10.0 mi East 9.2 mph - N/A   Mostly Cloudy
11:53 PM 82.9 °F 90.8 °F 75.9 °F 79% 29.98 in 10.0 mi East 5.8 mph - N/A   Clear